Time,TemperatureF,DewpointF,PressureIn,WindDirection,WindDirectionDegrees,WindSpeedMPH,WindSpeedGustMPH,Humidity,HourlyPrecipIn,Conditions,Clouds,dailyrainin,SoftwareType,DateUTC
2014-03-28 00:05:00,47.6,30.0,30.26,West,259,0.0,3.0,50,0.00,,,0.00,weatherlink.com 1.10,2014-03-28 04:05:00,
2014-03-28 00:20:00,47.2,30.0,30.24,SSW,202,0.0,0.0,51,0.00,,,0.00,weatherlink.com 1.10,2014-03-28 04:20:00,
2014-03-28 00:35:00,47.2,28.0,30.23,SSW,200,0.0,3.0,48,0.00,,,0.00,weatherlink.com 1.10,2014-03-28 04:35:00,
2014-03-28 00:50:00,47.7,29.0,30.23,South,173,0.0,2.0,48,0.00,,,0.00,weatherlink.com 1.10,2014-03-28 04:50:00,
2014-03-28 01:05:00,47.6,31.0,30.23,NNW,335,1.0,3.0,52,0.00,,,0.00,weatherlink.com 1.10,2014-03-28 05:05:00,
2014-03-28 01:20:00,47.7,32.0,30.24,WSW,254,3.0,4.0,54,0.00,,,0.00,weatherlink.com 1.10,2014-03-28 05:20:00,
2014-03-28 01:35:00,48.7,33.0,30.24,West,267,0.0,2.0,55,0.00,,,0.00,weatherlink.com 1.10,2014-03-28 05:35:00,
2014-03-28 01:50:00,49.5,35.0,30.24,SW,224,3.0,3.0,57,0.00,,,0.00,weatherlink.com 1.10,2014-03-28 05:50:00,
2014-03-28 02:05:00,50.2,34.0,30.21,WSW,238,1.0,2.0,55,0.00,,,0.00,weatherlink.com 1.10,2014-03-28 06:05:00,
2014-03-28 02:20:00,50.3,36.0,30.21,SE,134,1.0,4.0,58,0.00,,,0.00,weatherlink.com 1.10,2014-03-28 06:20:00,
2014-03-28 02:35:00,51.0,38.0,30.22,North,355,3.0,4.0,61,0.00,,,0.00,weatherlink.com 1.10,2014-03-28 06:35:00,
2014-03-28 02:50:00,51.3,38.0,30.24,WSW,257,0.0,2.0,60,0.00,,,0.00,weatherlink.com 1.10,2014-03-28 06:50:00,
2014-03-28 03:05:00,51.0,37.0,30.24,WSW,248,0.0,0.0,60,0.00,,,0.00,weatherlink.com 1.10,2014-03-28 07:05:00,
2014-03-28 03:20:00,50.7,38.0,30.24,WSW,243,0.0,0.0,61,0.00,,,0.00,weatherlink.com 1.10,2014-03-28 07:20:00,
2014-03-28 03:35:00,50.5,38.0,30.23,WSW,243,0.0,0.0,62,0.00,,,0.00,weatherlink.com 1.10,2014-03-28 07:35:00,
2014-03-28 03:50:00,50.3,38.0,30.21,WSW,243,0.0,0.0,63,0.00,,,0.00,weatherlink.com 1.10,2014-03-28 07:50:00,
2014-03-28 04:05:00,49.9,38.0,30.19,WSW,243,0.0,0.0,64,0.00,,,0.00,weatherlink.com 1.10,2014-03-28 08:05:00,
2014-03-28 04:20:00,49.6,38.0,30.19,WSW,243,0.0,0.0,65,0.00,,,0.00,weatherlink.com 1.10,2014-03-28 08:20:00,
2014-03-28 04:35:00,49.5,38.0,30.19,WSW,243,0.0,0.0,66,0.00,,,0.00,weatherlink.com 1.10,2014-03-28 08:35:00,
2014-03-28 04:50:00,49.5,39.0,30.19,WSW,252,0.0,0.0,67,0.00,,,0.00,weatherlink.com 1.10,2014-03-28 08:50:00,
2014-03-28 05:05:00,49.4,39.0,30.19,WSW,252,0.0,0.0,68,0.00,,,0.00,weatherlink.com 1.10,2014-03-28 09:05:00,
2014-03-28 05:20:00,49.2,41.0,30.19,WSW,252,0.0,0.0,72,0.00,,,0.00,weatherlink.com 1.10,2014-03-28 09:20:00,
2014-03-28 05:35:00,48.4,43.0,30.16,East,93,2.0,2.0,82,0.03,,,0.03,weatherlink.com 1.10,2014-03-28 09:35:00,
2014-03-28 05:50:00,46.5,44.0,30.15,SSE,156,0.0,3.0,89,0.06,,,0.06,weatherlink.com 1.10,2014-03-28 09:50:00,
2014-03-28 06:05:00,46.1,44.0,30.16,SW,220,0.0,3.0,92,0.07,,,0.07,weatherlink.com 1.10,2014-03-28 10:05:00,
2014-03-28 06:20:00,46.4,45.0,30.13,North,355,5.0,12.0,95,0.09,,,0.09,weatherlink.com 1.10,2014-03-28 10:20:00,
2014-03-28 06:35:00,46.9,45.0,30.14,WSW,254,0.0,2.0,94,0.09,,,0.12,weatherlink.com 1.10,2014-03-28 10:35:00,
2014-03-28 06:50:00,47.0,46.0,30.15,NW,311,0.0,2.0,95,0.06,,,0.12,weatherlink.com 1.10,2014-03-28 10:50:00,
2014-03-28 07:05:00,47.0,46.0,30.16,NW,311,0.0,0.0,95,0.05,,,0.12,weatherlink.com 1.10,2014-03-28 11:05:00,
2014-03-28 07:20:00,47.1,46.0,30.16,NW,311,0.0,0.0,95,0.04,,,0.13,weatherlink.com 1.10,2014-03-28 11:20:00,
2014-03-28 07:35:00,47.2,46.0,30.16,NNE,18,1.0,3.0,96,0.01,,,0.13,weatherlink.com 1.10,2014-03-28 11:35:00,
2014-03-28 07:50:00,47.3,46.0,30.16,NE,55,0.0,0.0,96,0.01,,,0.13,weatherlink.com 1.10,2014-03-28 11:50:00,
2014-03-28 08:05:00,47.2,46.0,30.13,SE,124,1.0,3.0,96,0.03,,,0.15,weatherlink.com 1.10,2014-03-28 12:05:00,
2014-03-28 08:20:00,47.4,46.0,30.16,NW,317,1.0,4.0,96,0.04,,,0.17,weatherlink.com 1.10,2014-03-28 12:20:00,
2014-03-28 08:35:00,47.4,46.0,30.15,NW,317,0.0,2.0,96,0.04,,,0.17,weatherlink.com 1.10,2014-03-28 12:35:00,
2014-03-28 08:51:00,47.4,46.0,30.15,WSW,252,0.0,0.0,96,0.05,,,0.18,weatherlink.com 1.10,2014-03-28 12:51:00,
2014-03-28 09:06:00,47.4,46.0,30.14,WSW,252,0.0,0.0,96,0.02,,,0.18,weatherlink.com 1.10,2014-03-28 13:06:00,
2014-03-28 09:25:00,47.7,47.0,30.15,NNW,336,0.0,0.0,97,0.01,,,0.18,weatherlink.com 1.10,2014-03-28 13:25:00,
2014-03-28 09:35:00,47.8,47.0,30.16,NNW,341,0.0,0.0,97,0.01,,,0.18,weatherlink.com 1.10,2014-03-28 13:35:00,
2014-03-28 10:31:00,48.3,48.0,30.16,East,92,0.0,0.0,97,0.01,,,0.19,weatherlink.com 1.10,2014-03-28 14:31:00,
2014-03-28 11:21:00,48.9,48.0,30.16,ESE,102,0.0,4.0,97,0.00,,,0.19,weatherlink.com 1.10,2014-03-28 15:21:00,
2014-03-28 11:36:00,49.1,49.0,30.16,East,90,0.0,2.0,98,0.01,,,0.20,weatherlink.com 1.10,2014-03-28 15:36:00,
2014-03-28 11:51:00,49.2,49.0,30.17,East,90,0.0,1.0,98,0.02,,,0.21,weatherlink.com 1.10,2014-03-28 15:51:00,
2014-03-28 12:06:00,49.4,49.0,30.16,East,90,0.0,0.0,98,0.02,,,0.21,weatherlink.com 1.10,2014-03-28 16:06:00,
2014-03-28 12:21:00,49.6,49.0,30.16,ESE,115,0.0,1.0,98,0.02,,,0.21,weatherlink.com 1.10,2014-03-28 16:21:00,
2014-03-28 12:36:00,49.7,49.0,30.16,ESE,115,0.0,0.0,98,0.01,,,0.21,weatherlink.com 1.10,2014-03-28 16:36:00,
2014-03-28 12:51:00,49.9,49.0,30.15,ESE,115,0.0,2.0,98,0.00,,,0.21,weatherlink.com 1.10,2014-03-28 16:51:00,
2014-03-28 13:22:00,50.2,50.0,30.14,East,98,0.0,2.0,98,0.01,,,0.22,weatherlink.com 1.10,2014-03-28 17:22:00,
2014-03-28 13:37:00,50.4,50.0,30.13,ENE,78,2.0,3.0,98,0.01,,,0.22,weatherlink.com 1.10,2014-03-28 17:37:00,
2014-03-28 13:52:00,50.5,50.0,30.12,East,83,1.0,2.0,98,0.01,,,0.22,weatherlink.com 1.10,2014-03-28 17:52:00,
2014-03-28 14:07:00,50.6,50.0,30.12,East,84,0.0,4.0,98,0.00,,,0.22,weatherlink.com 1.10,2014-03-28 18:07:00,
2014-03-28 14:22:00,50.7,50.0,30.12,East,84,2.0,2.0,98,0.00,,,0.22,weatherlink.com 1.10,2014-03-28 18:22:00,
2014-03-28 14:37:00,50.8,50.0,30.11,East,82,2.0,3.0,98,0.00,,,0.22,weatherlink.com 1.10,2014-03-28 18:37:00,
2014-03-28 14:52:00,51.0,51.0,30.10,East,87,0.0,3.0,98,0.01,,,0.23,weatherlink.com 1.10,2014-03-28 18:52:00,
2014-03-28 15:07:00,51.1,51.0,30.11,NNE,32,0.0,2.0,98,0.01,,,0.23,weatherlink.com 1.10,2014-03-28 19:07:00,
2014-03-28 15:22:00,51.2,51.0,30.11,NNE,32,0.0,0.0,98,0.03,,,0.25,weatherlink.com 1.10,2014-03-28 19:22:00,
2014-03-28 15:37:00,51.4,51.0,30.11,NNE,32,0.0,1.0,98,0.03,,,0.25,weatherlink.com 1.10,2014-03-28 19:37:00,
2014-03-28 15:52:00,51.3,51.0,30.09,NNE,32,0.0,0.0,98,0.02,,,0.25,weatherlink.com 1.10,2014-03-28 19:52:00,
2014-03-28 16:07:00,51.3,51.0,30.09,ENE,78,1.0,2.0,98,0.02,,,0.25,weatherlink.com 1.10,2014-03-28 20:07:00,
2014-03-28 16:22:00,51.4,51.0,30.09,ENE,78,0.0,0.0,98,0.00,,,0.25,weatherlink.com 1.10,2014-03-28 20:22:00,
2014-03-28 16:37:00,51.5,51.0,30.08,ESE,107,0.0,1.0,98,0.00,,,0.25,weatherlink.com 1.10,2014-03-28 20:37:00,
2014-03-28 16:52:00,51.6,51.0,30.07,ESE,107,0.0,2.0,98,0.00,,,0.25,weatherlink.com 1.10,2014-03-28 20:52:00,
2014-03-28 17:07:00,51.8,51.0,30.08,SE,146,0.0,0.0,98,0.01,,,0.26,weatherlink.com 1.10,2014-03-28 21:07:00,
2014-03-28 17:22:00,52.0,52.0,30.08,SSE,153,0.0,0.0,99,0.01,,,0.26,weatherlink.com 1.10,2014-03-28 21:22:00,
2014-03-28 17:37:00,52.2,52.0,30.08,SE,140,0.0,0.0,99,0.01,,,0.26,weatherlink.com 1.10,2014-03-28 21:37:00,
2014-03-28 17:52:00,52.4,52.0,30.08,SE,126,0.0,0.0,98,0.01,,,0.26,weatherlink.com 1.10,2014-03-28 21:52:00,
2014-03-28 18:07:00,52.6,52.0,30.08,SE,143,0.0,1.0,99,0.00,,,0.26,weatherlink.com 1.10,2014-03-28 22:07:00,
2014-03-28 18:22:00,52.7,52.0,30.07,SE,140,0.0,2.0,98,0.00,,,0.26,weatherlink.com 1.10,2014-03-28 22:22:00,
2014-03-28 18:37:00,52.8,52.0,30.08,NE,55,0.0,2.0,98,0.00,,,0.26,weatherlink.com 1.10,2014-03-28 22:37:00,
2014-03-28 18:52:00,52.9,52.0,30.07,NE,55,0.0,0.0,98,0.00,,,0.26,weatherlink.com 1.10,2014-03-28 22:52:00,
2014-03-28 19:07:00,53.0,53.0,30.07,NE,55,0.0,0.0,98,0.00,,,0.26,weatherlink.com 1.10,2014-03-28 23:07:00,
2014-03-28 19:22:00,53.0,53.0,30.07,NE,55,0.0,0.0,98,0.00,,,0.26,weatherlink.com 1.10,2014-03-28 23:22:00,
2014-03-28 19:37:00,53.0,53.0,30.07,NE,55,0.0,0.0,98,0.00,,,0.26,weatherlink.com 1.10,2014-03-28 23:37:00,
2014-03-28 19:52:00,53.0,53.0,30.07,SE,130,1.0,2.0,98,0.00,,,0.26,weatherlink.com 1.10,2014-03-28 23:52:00,
2014-03-28 20:07:00,53.0,52.0,30.07,East,87,1.0,4.0,97,0.00,,,0.26,weatherlink.com 1.10,2014-03-29 00:07:00,
2014-03-28 20:22:00,53.0,52.0,30.07,SE,126,0.0,3.0,97,0.00,,,0.26,weatherlink.com 1.10,2014-03-29 00:22:00,
2014-03-28 20:37:00,53.0,53.0,30.07,SSE,167,0.0,0.0,98,0.00,,,0.26,weatherlink.com 1.10,2014-03-29 00:37:00,
2014-03-28 20:52:00,53.0,53.0,30.07,South,170,0.0,0.0,98,0.00,,,0.26,weatherlink.com 1.10,2014-03-29 00:52:00,
2014-03-28 21:07:00,52.9,52.0,30.07,South,170,0.0,0.0,98,0.00,,,0.26,weatherlink.com 1.10,2014-03-29 01:07:00,
2014-03-28 21:22:00,52.8,52.0,30.08,South,170,0.0,0.0,98,0.00,,,0.26,weatherlink.com 1.10,2014-03-29 01:22:00,
2014-03-28 21:37:00,53.0,53.0,30.08,South,188,0.0,0.0,98,0.01,,,0.27,weatherlink.com 1.10,2014-03-29 01:37:00,
2014-03-28 21:52:00,52.9,52.0,30.08,SSW,206,0.0,1.0,98,0.01,,,0.27,weatherlink.com 1.10,2014-03-29 01:52:00,
2014-03-28 22:07:00,52.9,52.0,30.08,WSW,254,0.0,3.0,98,0.02,,,0.28,weatherlink.com 1.10,2014-03-29 02:07:00,
2014-03-28 22:22:00,52.9,52.0,30.07,WSW,244,1.0,2.0,98,0.02,,,0.28,weatherlink.com 1.10,2014-03-29 02:22:00,
2014-03-28 22:37:00,52.8,52.0,30.08,WSW,244,0.0,0.0,98,0.01,,,0.28,weatherlink.com 1.10,2014-03-29 02:37:00,
2014-03-28 22:52:00,52.8,52.0,30.08,WSW,244,0.0,0.0,98,0.02,,,0.29,weatherlink.com 1.10,2014-03-29 02:52:00,
2014-03-28 23:07:00,52.7,52.0,30.08,WSW,244,0.0,0.0,98,0.01,,,0.29,weatherlink.com 1.10,2014-03-29 03:07:00,
2014-03-28 23:22:00,52.7,52.0,30.08,WSW,244,0.0,0.0,98,0.01,,,0.29,weatherlink.com 1.10,2014-03-29 03:22:00,
2014-03-28 23:37:00,52.4,52.0,30.07,WSW,244,0.0,0.0,98,0.01,,,0.29,weatherlink.com 1.10,2014-03-29 03:37:00,
2014-03-28 23:52:00,52.6,52.0,30.07,WSW,244,0.0,0.0,98,0.00,,,0.29,weatherlink.com 1.10,2014-03-29 03:52:00,